This is the latest recevied weather packets stored in our database for station/object EFTP. If no packets are shown the sender has not sent any weather packets the latest 10 day(s).
| Time | Temp. | Humidity | Pressure | Rain* | Wind** | Luminosity | Snow |
|---|---|---|---|---|---|---|---|
| 1777950437 | 5° C | 95% | 999.4 hPa | - | - | - | - |
| 1777949237 | 5.56° C | 94% | 999.6 hPa | - | - | - | - |
| 1777948036 | 5° C | 94% | 999 hPa | - | - | - | - |
| 1777946837 | 5° C | 95% | 999.2 hPa | - | - | - | - |
| 1777945636 | 4.44° C | 95% | 999.4 hPa | - | - | - | - |
| 1777944436 | 5.56° C | 93% | 999.5 hPa | - | - | - | - |
| 1777943236 | 5.56° C | 93% | 1000.1 hPa | - | - | - | - |
| 1777942036 | 5.56° C | 93% | 1000.6 hPa | - | - | - | - |
| 1777940836 | 5.56° C | 93% | 1000.4 hPa | - | - | - | - |
| 1777939636 | 6.11° C | 94% | 1000.3 hPa | - | - | - | - |
| 1777938436 | 5.56° C | 95% | 1000.4 hPa | - | - | - | - |
| 1777937236 | 5.56° C | 94% | 1000.3 hPa | - | - | - | - |
| 1777936036 | 6.11° C | 94% | 1000.4 hPa | - | - | - | - |
| 1777934836 | 5.56° C | 94% | 1000.7 hPa | - | - | - | - |
| 1777933635 | 6.11° C | 92% | 1000.6 hPa | - | - | - | - |
| 1777932436 | 7.22° C | 90% | 1000.6 hPa | - | - | - | - |
| 1777931236 | 7.78° C | 91% | 1000.5 hPa | - | - | - | - |
| 1777930036 | 7.78° C | 91% | 1000.5 hPa | - | - | - | - |
| 1777928836 | 7.78° C | 90% | 1000.5 hPa | - | - | - | - |
| 1777927635 | 7.78° C | 90% | 1000.4 hPa | - | - | - | - |
| 1777926435 | 7.78° C | 87% | 1000.4 hPa | - | - | - | - |
| 1777925235 | 7.78° C | 86% | 1000.3 hPa | - | - | - | - |
| 1777924035 | 8.33° C | 79% | 1000.3 hPa | - | - | - | - |
| 1777922835 | 8.33° C | 78% | 1000.3 hPa | - | - | - | - |
| 1777921635 | 8.33° C | 79% | 1000.2 hPa | - | - | - | - |
* Rain since midnight (hover to see other rain measurements)
** Current wind speed in m/s (hover to see current wind gust speed)